When you browse on this site, cookies collect data to enhance your experience and personalize the content and advertising you see.
Visit our Privacy Policy to learn more. By continuing to use the site, you agree to this use of cookies and data.
EN

Hourly Weather Shaumyanskiy

Today, 22 September, Tuesday

Time Temperature Precipitation Wind Pressure Humidity
00:00 +13°C° 0 mm 2 mps 742 mmHg 72%
01:00 +13°C° 0 mm 2 mps 742 mmHg 77%
02:00 +12°C° 0 mm 1 mps 742 mmHg 81%
03:00 +12°C° 0 mm 1 mps 743 mmHg 83%
04:00 +12°C° 0 mm 1 mps 743 mmHg 87%
05:00 +11°C° 0 mm 1 mps 743 mmHg 90%
06:00 +11°C° 0 mm 1 mps 743 mmHg 93%
07:00 +14°C° 0 mm 2 mps 743 mmHg 84%
08:00 +16°C° 0 mm 3 mps 743 mmHg 76%
09:00 +18°C° 0 mm 3 mps 743 mmHg 67%
10:00 +20°C° 0 mm 4 mps 743 mmHg 61%
11:00 +22°C° 0 mm 5 mps 743 mmHg 54%
12:00 +25°C° 0 mm 5 mps 743 mmHg 47%
13:00 +25°C° 0 mm 5 mps 743 mmHg 46%
14:00 +26°C° 0 mm 5 mps 743 mmHg 44%
15:00 +26°C° 0 mm 5 mps 743 mmHg 43%
16:00 +25°C° 0 mm 5 mps 743 mmHg 48%
17:00 +22°C° 0 mm 4 mps 743 mmHg 53%
18:00 +21°C° 0 mm 3 mps 743 mmHg 59%
19:00 +20°C° 0 mm 3 mps 743 mmHg 65%
20:00 +18°C° 0 mm 3 mps 743 mmHg 71%
21:00 +17°C° 0 mm 3 mps 743 mmHg 77%
22:00 +16°C° 0 mm 3 mps 743 mmHg 82%
23:00 +16°C° 0 mm 2 mps 743 mmHg 86%

Tomorrow, 23 September, Wednesday

Time Temperature Precipitation Wind Pressure Humidity
00:00 +15°C° 0 mm 2 mps 742 mmHg 91%
01:00 +15°C° 0 mm 2 mps 742 mmHg 93%
02:00 +15°C° 0 mm 2 mps 742 mmHg 95%
03:00 +15°C° 0 mm 2 mps 742 mmHg 97%
04:00 +15°C° 0 mm 2 mps 742 mmHg 96%
05:00 +15°C° 0 mm 2 mps 742 mmHg 96%
06:00 +15°C° 0 mm 2 mps 742 mmHg 96%
07:00 +16°C° 0 mm 3 mps 742 mmHg 91%
08:00 +17°C° 0 mm 3 mps 742 mmHg 86%
09:00 +18°C° 0 mm 3 mps 742 mmHg 82%
10:00 +19°C° 0 mm 4 mps 741 mmHg 77%
11:00 +20°C° 0 mm 4 mps 741 mmHg 73%
12:00 +21°C° 0 mm 4 mps 741 mmHg 68%
13:00 +22°C° 0 mm 4 mps 741 mmHg 63%
14:00 +23°C° 0 mm 4 mps 740 mmHg 57%
15:00 +25°C° 0 mm 4 mps 740 mmHg 52%
16:00 +23°C° 0 mm 4 mps 740 mmHg 56%
17:00 +22°C° 0 mm 4 mps 740 mmHg 61%
18:00 +21°C° 0 mm 3 mps 740 mmHg 65%
19:00 +20°C° 0 mm 3 mps 740 mmHg 68%
20:00 +19°C° 0 mm 3 mps 740 mmHg 70%
21:00 +18°C° 0 mm 3 mps 740 mmHg 73%
22:00 +17°C° 0 mm 3 mps 740 mmHg 76%
23:00 +17°C° 0 mm 3 mps 740 mmHg 80%

Day after tomorrow, 24 September, Thursday

Time Temperature Precipitation Wind Pressure Humidity
00:00 +16°C° 0 mm 3 mps 740 mmHg 83%
01:00 +16°C° 0 mm 2 mps 740 mmHg 86%
02:00 +15°C° 0 mm 2 mps 740 mmHg 88%
03:00 +15°C° 0 mm 2 mps 740 mmHg 91%
04:00 +15°C° 0 mm 2 mps 740 mmHg 92%
05:00 +15°C° 0 mm 2 mps 740 mmHg 92%
06:00 +14°C° 0 mm 2 mps 740 mmHg 93%
07:00 +16°C° 0 mm 2 mps 740 mmHg 87%
08:00 +17°C° 0 mm 3 mps 740 mmHg 80%
09:00 +19°C° 0 mm 3 mps 740 mmHg 74%
10:00 +20°C° 0 mm 3 mps 740 mmHg 68%
11:00 +22°C° 0 mm 4 mps 739 mmHg 63%
12:00 +23°C° 0 mm 4 mps 739 mmHg 57%
13:00 +25°C° 0 mm 4 mps 739 mmHg 53%
14:00 +26°C° 0 mm 4 mps 739 mmHg 50%
15:00 +27°C° 0 mm 4 mps 739 mmHg 47%
16:00 +26°C° 0 mm 3 mps 739 mmHg 51%
17:00 +24°C° 0 mm 3 mps 739 mmHg 55%
18:00 +23°C° 0 mm 2 mps 739 mmHg 59%
19:00 +21°C° 0 mm 3 mps 739 mmHg 61%
20:00 +20°C° 0 mm 3 mps 739 mmHg 64%
21:00 +19°C° 0 mm 3 mps 739 mmHg 67%
22:00 +18°C° 0 mm 3 mps 739 mmHg 71%
23:00 +18°C° 0 mm 2 mps 739 mmHg 75%

25 September, Friday

Time Temperature Precipitation Wind Pressure Humidity
00:00 +17°C° 0 mm 2 mps 739 mmHg 79%
01:00 +17°C° 0 mm 2 mps 739 mmHg 82%
02:00 +16°C° 0 mm 1 mps 738 mmHg 85%
03:00 +16°C° 0 mm 1 mps 738 mmHg 87%
04:00 +16°C° 0 mm 1 mps 738 mmHg 89%
05:00 +15°C° 0 mm 1 mps 738 mmHg 91%
06:00 +15°C° 0 mm 1 mps 738 mmHg 93%
07:00 +18°C° 0 mm 1 mps 738 mmHg 86%
08:00 +19°C° 0 mm 2 mps 738 mmHg 79%
09:00 +20°C° 0 mm 2 mps 738 mmHg 72%
10:00 +22°C° 0 mm 3 mps 738 mmHg 64%
11:00 +26°C° 0 mm 3 mps 738 mmHg 56%
12:00 +28°C° 0 mm 4 mps 738 mmHg 49%
13:00 +28°C° 0 mm 4 mps 737 mmHg 44%
14:00 +29°C° 0 mm 5 mps 737 mmHg 40%
15:00 +29°C° 0 mm 5 mps 737 mmHg 35%
16:00 +28°C° 0 mm 4 mps 737 mmHg 35%
17:00 +26°C° 0 mm 3 mps 737 mmHg 35%
18:00 +25°C° 0 mm 3 mps 737 mmHg 35%
19:00 +24°C° 0 mm 3 mps 737 mmHg 34%
20:00 +24°C° 0 mm 3 mps 737 mmHg 33%
21:00 +22°C° 0 mm 4 mps 737 mmHg 32%
22:00 +21°C° 0 mm 3 mps 737 mmHg 36%
23:00 +20°C° 0 mm 3 mps 737 mmHg 41%

26 September, Saturday

Time Temperature Precipitation Wind Pressure Humidity
00:00 +19°C° 0 mm 2 mps 737 mmHg 45%
01:00 +19°C° 0 mm 2 mps 737 mmHg 47%
02:00 +19°C° 0 mm 2 mps 736 mmHg 50%
03:00 +18°C° 0 mm 2 mps 736 mmHg 52%
04:00 +18°C° 0 mm 2 mps 736 mmHg 53%
05:00 +18°C° 0 mm 2 mps 736 mmHg 54%
06:00 +18°C° 0 mm 2 mps 737 mmHg 56%
07:00 +19°C° 0 mm 2 mps 737 mmHg 54%
08:00 +19°C° 0 mm 2 mps 737 mmHg 53%
09:00 +20°C° 0 mm 2 mps 737 mmHg 51%
10:00 +22°C° 0 mm 3 mps 737 mmHg 49%
11:00 +23°C° 0 mm 4 mps 737 mmHg 46%
12:00 +26°C° 0 mm 4 mps 737 mmHg 43%
13:00 +26°C° 0 mm 5 mps 737 mmHg 43%
14:00 +27°C° 0 mm 5 mps 737 mmHg 42%
15:00 +27°C° 0 mm 5 mps 737 mmHg 41%
16:00 +26°C° 0 mm 5 mps 737 mmHg 43%
17:00 +25°C° 0 mm 5 mps 737 mmHg 45%
18:00 +23°C° 0 mm 5 mps 737 mmHg 47%
19:00 +22°C° 0 mm 5 mps 738 mmHg 52%
20:00 +20°C° 0 mm 5 mps 738 mmHg 57%
21:00 +19°C° 0 mm 4 mps 738 mmHg 63%
22:00 +18°C° 0 mm 4 mps 738 mmHg 67%
23:00 +18°C° 0 mm 3 mps 738 mmHg 71%

27 September, Sunday

Time Temperature Precipitation Wind Pressure Humidity
00:00 +17°C° 0 mm 3 mps 737 mmHg 75%
01:00 +16°C° 0 mm 2 mps 737 mmHg 76%
02:00 +16°C° 0 mm 2 mps 737 mmHg 77%
03:00 +15°C° 0 mm 1 mps 737 mmHg 79%
04:00 +15°C° 0 mm 1 mps 738 mmHg 78%
05:00 +15°C° 0 mm 1 mps 738 mmHg 78%
06:00 +15°C° 0 mm 1 mps 738 mmHg 78%
07:00 +17°C° 0 mm 2 mps 738 mmHg 72%
08:00 +19°C° 0 mm 3 mps 738 mmHg 65%
09:00 +21°C° 0 mm 4 mps 739 mmHg 59%
10:00 +22°C° 0 mm 4 mps 739 mmHg 55%
11:00 +25°C° 0 mm 5 mps 739 mmHg 50%
12:00 +27°C° 0 mm 5 mps 739 mmHg 46%
13:00 +27°C° 0 mm 6 mps 739 mmHg 44%
14:00 +27°C° 0 mm 6 mps 739 mmHg 41%
15:00 +28°C° 0 mm 7 mps 739 mmHg 39%
16:00 +26°C° 0 mm 6 mps 739 mmHg 42%
17:00 +24°C° 0 mm 6 mps 740 mmHg 44%
18:00 +22°C° 0 mm 5 mps 740 mmHg 47%
19:00 +20°C° 0 mm 5 mps 740 mmHg 51%
20:00 +19°C° 0 mm 4 mps 740 mmHg 55%
21:00 +18°C° 0 mm 4 mps 741 mmHg 59%
22:00 +17°C° 0 mm 3 mps 741 mmHg 64%
23:00 +16°C° 0 mm 3 mps 741 mmHg 69%
Show more